Location: Sternwarte ZA, Rosenfeld-Brittheim
(48.2889°N, 8.6789°E)
Time: 19:43:48
(UTC+01:00)

ISS - Pass Details

Date: 11 December 2017
Orbit: 402 x 407 km, 51.6° (Epoch: 11 December)

Event Time Altitude Azimuth Distance (km) Brightness Sun altitude
Rises 19:46:03 0° 288° (WNW) 2,330 1.0 -31.3°
Reaches altitude 10° 19:48:22 10° 274° (W) 1,466 -0.1 -31.7°
Enters shadow 19:48:28 11° 273° (W) 1,432 -0.2 -31.7°
